Location: Old Broadwell Mill Observatory
(33.8015°N, 85.8137°W)
Time: 16:17:11
(UTC-06:00)

Daily predictions for brighter satellites

Satellite Brightness Start Highest point End
(mag) Time Altitude Azimuth Time Altitude Azimuth Time Altitude Azimuth
Okean 1-7 Rocket 4.3 16:57:37 10° SSE 17:01:42 35° E 17:05:47 10° NNE
Cosmos 1812 3.8 16:58:01 10° SSW 17:01:45 49° W 17:05:29 10° N
CZ-4 R/B 1.4 17:01:40 10° SSE 17:05:49 77° ENE 17:09:57 10° N
MOS 1 4.3 17:00:45 10° SSE 17:06:20 66° ENE 17:11:56 10° N
Tiangong 1 3.0 17:04:30 10° NW 17:06:39 17° N 17:08:47 10° NE
SPOT 3 Rocket 3.5 17:05:06 10° SSE 17:10:14 67° ENE 17:15:22 10° N
MSX 4.1 17:05:17 10° SE 17:10:42 45° ENE 17:16:08 10° N
COSMOS 2487 2.4 17:10:42 10° NNW 17:14:18 75° ENE 17:17:51 10° SSE
AQUARIUS 4.1 17:11:14 10° SSE 17:15:42 76° ENE 17:20:11 10° N
Cosmos 2366 rocket 4.4 17:09:32 10° NNW 17:15:50 70° W 17:22:02 10° S
Meteor 2-21 4.4 17:12:55 10° N 17:19:03 67° E 17:25:06 10° SSE
Cosmos 2297 4.3 17:18:45 10° SSW 17:24:18 59° WNW 17:29:52 10° NNE
NOSS 2-1 (D) 4.1 17:20:46 10° SW 17:24:27 48° NW 17:28:26 10° NNE
NOSS 7 (E) 4.5 17:20:48 10° SSW 17:24:29 80° WNW 17:27:47 10° NNE
NOSS 2-1 (C) 4.1 17:21:24 10° SW 17:25:07 50° WNW 17:29:09 10° NNE
Cosmos 2278 Rocket 4.3 17:28:31 10° WSW 17:32:56 23° WNW 17:37:22 10° N
COSMO-SKYMED 1 2.6 17:29:58 10° NNE 17:34:14 57° E 17:38:29 10° S
Cosmos 921 Rocket 3.7 17:30:48 10° SSW 17:34:56 54° WNW 17:39:12 10° N
Meteor 2-14 Rocket 4.4 17:30:01 10° N 17:36:09 67° E 17:42:12 10° SSE
Cosmos 1025 Rocket 3.1 17:32:19 10° S 17:36:35 56° E 17:40:54 10° NNE
Abrixas 2.6 17:36:57 10° NW 17:39:50 49° NE 17:41:15 25° E
Cosmos 1666 3.3 17:37:00 10° NNE 17:40:33 33° E 17:44:04 10° SE
IDEFIX/ARIANE 42P 3.2 17:36:31 10° S 17:41:38 59° W 17:46:45 10° NNW
Cosmos 1821 Rocket 3.9 17:43:02 10° N 17:49:04 63° E 17:55:07 10° SSE
Cosmos 1833 Rocket 2.6 17:47:17 10° NNW 17:52:56 87° ENE 17:58:34 10° SSE
YAOGAN 1 4.0 17:49:43 10° S 17:53:47 40° W 17:57:52 10° NNW
Timation 2 Rocket 4.5 17:48:53 10° NNW 17:55:44 73° WSW 18:02:33 10° SSE
Orbus 7S? 3.3 17:55:09 10° SSW 17:57:48 35° SE 17:57:48 35° SE
CZ-3B DEB 4.4 17:54:36 10° NW 17:58:27 19° N 18:04:32 11° NE
Cosmos 1605 Rocket 4.3 17:53:58 10° N 17:59:50 41° E 18:05:35 10° SSE
DMSP B5D1-3 4.4 17:55:52 10° NNE 18:01:02 83° ESE 18:06:09 10° SSW
Cosmos 2058 Rocket 4.2 18:02:41 26° ESE 18:02:41 26° ESE 18:05:08 10° SE
Meteor 2-16 Rocket 4.5 17:55:44 10° N 18:01:49 82° W 18:07:54 10° S
USA 234 4.4 17:56:14 10° NNE 18:02:03 36° NW 18:07:53 10° W
Cosmos 2082 Rocket 2.6 17:56:43 10° NNW 18:02:20 65° WSW 18:07:57 10° S
CZ-2C R/B 4.3 17:58:57 10° SSW 18:03:25 33° W 18:08:02 10° NNW
Cosmos 1743 3.6 18:00:53 10° NNW 18:04:38 50° W 18:08:20 10° S
Intercosmos 25 4.3 18:05:39 10° NNW 18:08:42 42° W 18:12:25 10° SSW
Meteor 1-28 Rocket 3.1 18:06:27 23° NNE 18:08:44 89° E 18:12:30 10° SSW
BREEZE M DEB (TANK) 4.1 18:04:23 10° WSW 18:11:24 28° NW 18:13:17 19° N
Cosmos 1484 Rocket 3.9 18:14:32 10° S 18:18:06 42° W 18:21:39 10° NNW
Chunghua 1 4.4 18:16:44 10° W 18:20:38 85° N 18:20:43 83° NE
NOSS 3-4 (A) 3.7 18:14:35 10° NNW 18:21:44 73° ENE 18:29:15 10° SE
NOSS 3-4 (C) 3.7 18:14:41 10° NNW 18:21:49 72° ENE 18:29:21 10° SE
Delta 2 Rocket 3.0 18:18:09 10° WNW 18:21:50 76° N 18:21:53 76° NNE
Cosmos 407 Rocket 3.3 18:21:23 10° N 18:26:31 66° ENE 18:31:39 10° SSE
Okean 2 4.3 18:26:36 10° SSW 18:30:38 49° W 18:33:19 20° NNW
BREEZE M DEB (TANK) 4.3 18:25:59 10° NW 18:30:42 47° NE 18:34:19 35° E
Cosmos 1892 Rocket 4.2 18:29:00 10° SSW 18:33:14 54° W 18:35:54 22° NNW
Cosmos 1727 Rocket 3.8 18:27:41 10° S 18:33:54 82° E 18:38:31 19° N
Cosmos 2369 Rocket 2.0 18:30:07 10° SSW 18:35:44 76° ESE 18:36:49 58° NE
NOAA 12 4.1 18:33:25 10° S 18:38:41 78° WSW 18:43:58 10° NNW
Meteor 1-15 Rocket 4.5 18:35:19 10° NNW 18:41:09 71° W 18:46:52 10° S
Cosmos 1726 Rocket 4.3 18:39:11 10° NNW 18:43:32 53° W 18:47:52 10° S
FALCON 9 R/B 3.0 18:25:55 10° W 18:47:16 86° N 18:49:07 56° E
Cosmos 1340 4.4 18:50:21 10° SW 18:53:43 30° WNW 18:53:52 30° WNW
OAO 2 Rocket 4.2 18:49:55 10° SW 18:53:48 39° S 18:53:48 39° S
ATLAS 3B CENTAUR R/B 3.6 18:38:57 10° W 18:57:33 58° SSW 19:00:27 40° SE
Cosmos 1943 Rocket 3.6 18:58:47 10° S 19:01:06 25° S 19:01:06 25° S
